Погода в Цесисе

Латвия     57°18′46″N   25°16′20″E
темп.,
°C
ветер,
м/с
пор.,
м/с
влажн.,
%
обл.,
%
осадки,
мм/ч
давл.,
гПа
погр.,
м
16 сентября, чт
чт1600:00+4в26885 0.0 1021126
03:00+3вюв25905 0.0 102193
06:00+3вюв249133 0.0 102181
09:00+7вюв357257 0.0 1021244
12:00+12вюв3455100 0.0 1020928
15:00+13юв3452100 0.0 10191036
18:00+11вюв3662100 0.0 1018477
21:00+8в3107299 0.0 1018359
17 сентября, пт
пт1700:00+7вюв4117789 0.0 1018357
03:00+6в4117595 0.0 1017341
06:00+6в4127369 0.0 1016408
09:00+7в5136796 0.0 1017472
12:00+11в585066 0.0 1017924
15:00+13в574564 0.0 10171277
18:00+12в485457 0.0 10181177
21:00+8всв4126897 0.0 1019615
18 сентября, сб
сб1800:00+6всв41371100 0.0 1021548
03:00+5всв41272100 0.0 1021449
06:00+4всв41374100 0.0 1021468
09:00+6всв51466100 0.0 1022650
12:00+11в6104679 0.0 10221139
15:00+12всв694187 0.0 10211336
18:00+11всв59505 0.0 10211222
21:00+7всв412640 0.0 1022688
19 сентября, вс
вс1900:00+5всв413790 0.0 1022446
03:00+4св413880 0.0 1022412
06:00+3св413890 0.0 1022428
09:00+5св513760 0.0 1023524
12:00+11всв69510 0.0 10221009
15:00+13всв68435 0.0 10221368
18:00+11всв48525 0.0 10221385
21:00+7всв4126579 0.0 1024659
20 сентября, пн
пн2000:00+5всв4127666 0.0 1025612
03:00+3св412825 0.0 1025488
06:00+2св412894 0.0 1025485
09:00+4св413775 0.0 1026563
12:00+10всв69505 0.0 10251152
15:00+12всв58445 0.0 10251451
18:00+10св58525 0.0 10251230
21:00+4св310725 0.0 1026320